Location: Eymir
(36.7333°N, 29.7833°E)
Time: 16:52:19
(UTC+00:00)

CORIOLIS - Pass Details

Date: 14 January 2026
Orbit: 816 x 836 km, 98.7° (Epoch: 17 February)

Event Time Altitude Azimuth Distance (km) Brightness Sun altitude
Rises 04:20:02 0° 12° (NNE) 3,391 7.3 -10.6°
Reaches altitude 10° 04:22:24 10° 12° (NNE) 2,453 6.6 -10.2°
Maximum altitude 04:27:51 87° 285° (WNW) 840 4.2 -9.1°
Drops below altitude 10° 04:33:15 10° 196° (SSW) 2,431 6.7 -8.1°
Sets 04:35:35 0° 196° (SSW) 3,358 7.4 -7.7°
